Location: Lansingburgh
(42.7845°N, 73.6696°W)
Time: 14:55:56
(UTC+00:00)

Cosmos 2333 Rocket - Pass Details

Date: 24 January 2020
Orbit: 839 x 863 km, 70.8° (Epoch: 24 February)

Event Time Altitude Azimuth Distance (km) Brightness Sun altitude
Rises 22:14:41 0° 329° (NNW) 3,435 5.5 -3.8°
Reaches altitude 10° 22:17:14 10° 324° (NW) 2,491 4.8 -4.3°
Maximum altitude 22:22:39 46° 253° (WSW) 1,128 3.6 -5.2°
Drops below altitude 10° 22:28:01 10° 181° (S) 2,459 4.9 -6.1°
Sets 22:30:32 0° 175° (S) 3,386 5.6 -6.5°
